Previsão horária em Abay (Maktaaralskiy rayon)

Hoje, 17 Abril, Sábado

Tempo Temperatura Precipitação Vento Pressão Humidade
00:00 +18°C° 0 mm 2 m/s 738 mmHg 37%
01:00 +19°C° 0 mm 1 m/s 738 mmHg 38%
02:00 +18°C° 0 mm 1 m/s 738 mmHg 39%
03:00 +18°C° 0 mm 1 m/s 738 mmHg 40%
04:00 +16°C° 0 mm 1 m/s 738 mmHg 41%
05:00 +16°C° 0 mm 1 m/s 739 mmHg 42%
06:00 +18°C° 0 mm 1 m/s 739 mmHg 41%
07:00 +19°C° 0 mm 1 m/s 739 mmHg 40%
08:00 +20°C° 0 mm 1 m/s 740 mmHg 39%
09:00 +21°C° 0 mm 1 m/s 740 mmHg 35%
10:00 +23°C° 0 mm 1 m/s 740 mmHg 30%
11:00 +25°C° 0 mm 1 m/s 740 mmHg 26%
12:00 +26°C° 0 mm 2 m/s 740 mmHg 25%
13:00 +26°C° 0 mm 2 m/s 740 mmHg 23%
14:00 +27°C° 0 mm 2 m/s 739 mmHg 21%
15:00 +27°C° 0 mm 3 m/s 739 mmHg 23%
16:00 +26°C° 0 mm 3 m/s 739 mmHg 24%
17:00 +26°C° 0 mm 4 m/s 739 mmHg 26%
18:00 +24°C° 0 mm 3 m/s 739 mmHg 28%
19:00 +23°C° 0 mm 2 m/s 739 mmHg 31%
20:00 +21°C° 0 mm 2 m/s 739 mmHg 33%
21:00 +20°C° 0 mm 2 m/s 739 mmHg 36%
22:00 +21°C° 0 mm 1 m/s 739 mmHg 38%
23:00 +20°C° 0 mm 1 m/s 739 mmHg 41%

Amanhã, 18 Abril, Domingo

Tempo Temperatura Precipitação Vento Pressão Humidade
00:00 +20°C° 0 mm 1 m/s 739 mmHg 41%
01:00 +20°C° 0 mm 1 m/s 739 mmHg 41%
02:00 +20°C° 0 mm 1 m/s 739 mmHg 41%
03:00 +20°C° 0 mm 1 m/s 739 mmHg 41%
04:00 +20°C° 0 mm 1 m/s 740 mmHg 41%
05:00 +20°C° 0 mm 1 m/s 740 mmHg 41%
06:00 +20°C° 0 mm 1 m/s 740 mmHg 41%
07:00 +20°C° 0 mm 1 m/s 741 mmHg 41%
08:00 +21°C° 0 mm 1 m/s 741 mmHg 41%
09:00 +22°C° 0 mm 1 m/s 741 mmHg 37%
10:00 +24°C° 0 mm 1 m/s 742 mmHg 33%
11:00 +25°C° 0 mm 1 m/s 742 mmHg 29%
12:00 +26°C° 0 mm 2 m/s 741 mmHg 25%
13:00 +27°C° 0 mm 2 m/s 741 mmHg 22%
14:00 +27°C° 0 mm 3 m/s 741 mmHg 19%
15:00 +27°C° 0 mm 3 m/s 741 mmHg 18%
16:00 +27°C° 0 mm 3 m/s 741 mmHg 18%
17:00 +27°C° 0 mm 3 m/s 740 mmHg 18%
18:00 +25°C° 0 mm 2 m/s 740 mmHg 20%
19:00 +24°C° 0 mm 2 m/s 740 mmHg 22%
20:00 +21°C° 0 mm 2 m/s 740 mmHg 24%
21:00 +21°C° 0 mm 2 m/s 740 mmHg 26%
22:00 +20°C° 0 mm 2 m/s 740 mmHg 29%
23:00 +19°C° 0 mm 2 m/s 740 mmHg 31%

Depois de amanhã, 19 Abril, Segunda-feira

Tempo Temperatura Precipitação Vento Pressão Humidade
00:00 +19°C° 0 mm 2 m/s 740 mmHg 34%
01:00 +18°C° 0 mm 2 m/s 739 mmHg 36%
02:00 +19°C° 0 mm 1 m/s 739 mmHg 39%
03:00 +17°C° 0 mm 2 m/s 739 mmHg 39%
04:00 +17°C° 0 mm 2 m/s 739 mmHg 40%
05:00 +17°C° 0 mm 2 m/s 739 mmHg 40%
06:00 +18°C° 0 mm 2 m/s 739 mmHg 38%
07:00 +19°C° 0 mm 2 m/s 739 mmHg 37%
08:00 +20°C° 0 mm 2 m/s 739 mmHg 35%
09:00 +21°C° 0 mm 2 m/s 739 mmHg 32%
10:00 +24°C° 0 mm 1 m/s 739 mmHg 29%
11:00 +26°C° 0 mm 1 m/s 739 mmHg 25%
12:00 +26°C° 0 mm 1 m/s 738 mmHg 24%
13:00 +27°C° 0 mm 2 m/s 738 mmHg 22%
14:00 +27°C° 0 mm 2 m/s 738 mmHg 21%
15:00 +27°C° 0 mm 2 m/s 737 mmHg 21%
16:00 +27°C° 0 mm 2 m/s 737 mmHg 21%
17:00 +27°C° 0 mm 3 m/s 737 mmHg 22%
18:00 +25°C° 0 mm 3 m/s 737 mmHg 26%
19:00 +22°C° 0 mm 3 m/s 737 mmHg 29%
20:00 +21°C° 0 mm 3 m/s 737 mmHg 33%
21:00 +20°C° 0 mm 3 m/s 736 mmHg 36%
22:00 +19°C° 0 mm 3 m/s 736 mmHg 39%
23:00 +18°C° 0 mm 3 m/s 736 mmHg 42%

20 Abril, Terça-feira

Tempo Temperatura Precipitação Vento Pressão Humidade
00:00 +18°C° 0 mm 3 m/s 735 mmHg 42%
01:00 +18°C° 0 mm 3 m/s 735 mmHg 42%
02:00 +18°C° 0 mm 3 m/s 735 mmHg 42%
03:00 +18°C° 0 mm 2 m/s 735 mmHg 42%
04:00 +17°C° 0 mm 2 m/s 735 mmHg 42%
05:00 +18°C° 0 mm 1 m/s 735 mmHg 43%
06:00 +19°C° 0 mm 1 m/s 735 mmHg 41%
07:00 +20°C° 0 mm 1 m/s 735 mmHg 39%
08:00 +21°C° 0 mm 1 m/s 735 mmHg 38%
09:00 +22°C° 0 mm 1 m/s 735 mmHg 33%
10:00 +24°C° 0 mm 2 m/s 735 mmHg 29%
11:00 +26°C° 0 mm 2 m/s 735 mmHg 24%
12:00 +26°C° 0 mm 4 m/s 735 mmHg 24%
13:00 +26°C° 0 mm 5 m/s 735 mmHg 24%
14:00 +27°C° 0 mm 7 m/s 735 mmHg 23%
15:00 +26°C° 0 mm 7 m/s 735 mmHg 28%
16:00 +24°C° 0 mm 7 m/s 735 mmHg 33%
17:00 +23°C° 0 mm 6 m/s 736 mmHg 37%
18:00 +21°C° 0 mm 6 m/s 736 mmHg 44%
19:00 +19°C° 0 mm 5 m/s 736 mmHg 50%
20:00 +18°C° 0 mm 4 m/s 737 mmHg 56%
21:00 +17°C° 0.2 mm 4 m/s 737 mmHg 60%
22:00 +17°C° 0.2 mm 4 m/s 737 mmHg 63%
23:00 +16°C° 0.2 mm 3 m/s 737 mmHg 67%

21 Abril, Quarta-feira

Tempo Temperatura Precipitação Vento Pressão Humidade
00:00 +16°C° 0.1 mm 3 m/s 737 mmHg 68%
01:00 +16°C° 0.1 mm 2 m/s 737 mmHg 69%
02:00 +15°C° 0.1 mm 1 m/s 736 mmHg 70%
03:00 +15°C° 0 mm 1 m/s 737 mmHg 72%
04:00 +15°C° 0 mm 2 m/s 737 mmHg 74%
05:00 +14°C° 0 mm 2 m/s 737 mmHg 75%
06:00 +14°C° 0 mm 3 m/s 737 mmHg 75%
07:00 +14°C° 0 mm 3 m/s 738 mmHg 75%
08:00 +14°C° 0 mm 4 m/s 739 mmHg 74%
09:00 +14°C° 0.2 mm 4 m/s 739 mmHg 71%
10:00 +15°C° 0.2 mm 4 m/s 739 mmHg 68%
11:00 +15°C° 0.2 mm 4 m/s 739 mmHg 65%
12:00 +17°C° 0.1 mm 4 m/s 739 mmHg 59%
13:00 +19°C° 0.1 mm 4 m/s 739 mmHg 52%
14:00 +20°C° 0.1 mm 4 m/s 739 mmHg 45%
15:00 +20°C° 0 mm 5 m/s 739 mmHg 45%
16:00 +20°C° 0 mm 5 m/s 739 mmHg 45%
17:00 +20°C° 0 mm 5 m/s 739 mmHg 44%
18:00 +17°C° 0 mm 5 m/s 740 mmHg 49%
19:00 +15°C° 0 mm 5 m/s 740 mmHg 55%
20:00 +13°C° 0 mm 5 m/s 741 mmHg 60%
21:00 +12°C° 0 mm 5 m/s 741 mmHg 62%
22:00 +11°C° 0 mm 4 m/s 741 mmHg 65%
23:00 +8°C° 0 mm 4 m/s 741 mmHg 68%

22 Abril, Quinta-feira

Tempo Temperatura Precipitação Vento Pressão Humidade
00:00 +9°C° 0 mm 3 m/s 741 mmHg 69%
01:00 +8°C° 0 mm 3 m/s 742 mmHg 69%
02:00 +8°C° 0 mm 2 m/s 742 mmHg 70%
03:00 +7°C° 0 mm 2 m/s 742 mmHg 71%
04:00 +7°C° 0 mm 2 m/s 742 mmHg 72%
05:00 +7°C° 0 mm 2 m/s 742 mmHg 73%
06:00 +7°C° 0 mm 2 m/s 743 mmHg 68%
07:00 +8°C° 0 mm 2 m/s 743 mmHg 64%
08:00 +9°C° 0 mm 2 m/s 743 mmHg 59%
09:00 +12°C° 0 mm 2 m/s 743 mmHg 55%
10:00 +13°C° 0 mm 2 m/s 743 mmHg 50%
11:00 +15°C° 0 mm 2 m/s 744 mmHg 46%
12:00 +16°C° 0 mm 2 m/s 743 mmHg 44%
13:00 +17°C° 0 mm 2 m/s 743 mmHg 41%
14:00 +18°C° 0 mm 2 m/s 743 mmHg 39%
15:00 +19°C° 0 mm 2 m/s 743 mmHg 37%
16:00 +19°C° 0 mm 2 m/s 743 mmHg 35%
17:00 +21°C° 0 mm 1 m/s 743 mmHg 32%
18:00 +18°C° 0 mm 2 m/s 743 mmHg 39%
19:00 +16°C° 0 mm 3 m/s 743 mmHg 45%
20:00 +14°C° 0 mm 3 m/s 743 mmHg 51%
21:00 +13°C° 0 mm 3 m/s 743 mmHg 54%
22:00 +13°C° 0 mm 2 m/s 743 mmHg 57%
23:00 +12°C° 0 mm 2 m/s 743 mmHg 61%
Mostrar mais

Necessitamos do seu Consentimento

A Meteoprog e os seus Fornecedores de Serviços podem armazenar e aceder a dados pessoais como cookies, identificadores do dispositivo ou outras tecnologias semelhantes existentes no seu dispositivo e processar estes dados para personalizar conteúdos e anúncios, assim como funcionalidades nas redes sociais e análise de tráfego.

  • Armazenar e/ou aceder a informações no seu dispositivo

    Os cookies, identificadores do dispositivo ou outras informações podem ser armazenados ou acedidos no seu dispositivo, para os fins acima indicados.

  • Anúncios e conteúdos personalizados, medição de anúncios e conteúdos, dados sobre o público-alvo e desenvolvimento de produtos

    Os anúncios e os conteúdos podem ser personalizados com base num perfil. Podem ser adicionados dados adicionais para uma maior personalização dos anúncios e dos conteúdos. A eficácia dos anúncios e dos conteúdos pode ser medida. Podem ser obtidas informações sobre o público que visualizou os anúncios e os conteúdos. Estes dados podem ser usados para desenvolver ou melhorar sistemas, softwares ou a experiência do utilizador.

Ao clicar em "Eu concordo”, permitirá o uso de cookies, identificadores do dispositivo e web beacons mencionados ou outras tecnologias semelhantes. As configurações do navegador do seu dispositivo podem ser alteradas.

Para certos fins, podem ser invocados interesses legítimos ao invés de consentimento. Pode ler mais informação sobre este assunto na nossa Política de Privacidade e Cookies.